N1JFY Weather Reports


time (UTC)temp
F
wind
direction
speed
knots
gust
knots
rain 1hr
in
rain 24hr
in
rain mn
in
humidity
%
barometer
mb
20260509040002 42 360 5.2 11.3 0.00 0.00 0.00 68 1008.8
20260509034604 42 360 7.8 13.9 0.00 0.00 0.00 68 1008.7
20260509033059 43 360 7.0 14.8 0.00 0.00 0.00 68 1008.5
20260509031602 43 288 7.0 13.0 0.00 0.00 0.00 66 1008.5
20260509030058 43 360 7.8 13.0 0.00 0.00 0.00 66 1008.5
20260509024557 43 250 6.1 9.6 0.00 0.00 0.00 67 1008.4
20260509023057 42 360 4.3 7.8 0.00 0.00 0.00 72 1008.4
20260509021555 41 267 3.5 8.7 0.00 0.00 0.00 74 1008.3
20260509020056 40 281 0.0 0.0 0.00 0.00 0.00 80 1008.2
20260509014552 40 280 0.0 0.0 0.00 0.00 0.00 83 1008.0
20260509013051 40 256 0.0 0.0 0.00 0.00 0.00 82 1007.9
20260509011550 41 257 0.0 0.0 0.00 0.00 0.00 82 1007.8
20260509010048 41 252 0.0 0.0 0.00 0.00 0.00 83 1007.6
20260509004548 41 246 0.0 0.0 0.00 0.00 0.00 84 1007.5
20260509003045 41 246 0.0 0.0 0.00 0.00 0.00 84 1007.3
20260509001544 42 247 0.0 0.0 0.00 0.00 0.00 82 1007.2
20260509000044 42 360 0.0 0.0 0.00 0.00 0.00 80 1007.2
20260508234546 42 35 0.0 0.0 0.00 0.00 0.00 81 1007.0
20260508233040 42 37 0.0 0.0 0.00 0.00 0.00 79 1006.6
20260508231545 43 37 0.0 0.0 0.00 0.00 0.00 79 1006.2
20260508230046 43 37 0.0 0.0 0.00 0.00 0.00 76 1006.2
20260508224536 43 37 0.0 0.0 0.00 0.00 0.00 77 1006.2
20260508223042 44 40 0.0 6.1 0.00 0.00 0.00 78 1006.2
20260508221535 44 360 0.0 0.9 0.00 0.00 0.00 74 1006.0
20260508220038 44 360 0.0 7.0 0.00 0.00 0.00 76 1005.9
20260508214531 43 5 5.2 8.7 0.00 0.00 0.00 76 1005.8
20260508213030 44 323 9.6 18.2 0.00 0.00 0.00 69 1005.8
20260508211530 46 290 14.8 23.5 0.00 0.00 0.00 65 1005.4
20260508210025 49 360 7.0 12.2 0.00 0.00 0.00 55 1005.0
20260508204524 49 360 7.8 14.8 0.00 0.00 0.00 54 1004.8
20260508203025 49 360 8.7 12.2 0.00 0.00 0.00 55 1004.5
20260508201522 48 360 4.3 7.8 0.00 0.00 0.00 60 1004.5
20260508200020 47 328 4.3 15.6 0.00 0.00 0.00 60 1004.6
20260508194521 45 234 4.3 15.6 0.00 0.00 0.00 66 1004.7
20260508193024 45 360 9.6 22.6 0.00 0.00 0.00 67 1004.8
20260508191532 48 360 12.2 17.4 0.00 0.00 0.00 62 1004.6
20260508190026 49 360 9.6 15.6 0.00 0.00 0.00 58 1004.3
20260508184520 48 360 10.4 14.8 0.00 0.00 0.00 62 1004.3
20260508183015 47 342 8.7 16.5 0.00 0.00 0.00 64 1004.3
20260508181514 45 360 12.2 19.1 0.00 0.00 0.00 71 1004.2
20260508180014 44 321 12.2 20.9 0.00 0.00 0.00 73 1004.2
20260508174514 45 285 13.9 20.9 0.00 0.00 0.00 71 1004.1
20260508173013 48 360 12.2 20.0 0.00 0.00 0.00 57 1003.9
20260508171512 49 360 2.6 11.3 0.00 0.00 0.00 48 1003.5
20260508170013 50 360 0.9 10.4 0.00 0.00 0.00 52 1003.4
20260508164513 48 360 0.0 10.4 0.00 0.01 0.00 55 1003.7
20260508163008 49 360 5.2 11.3 0.00 0.01 0.00 58 1003.7
20260508161504 48 244 3.5 8.7 0.00 0.01 0.00 64 1003.7
20260508160008 46 258 1.7 7.8 0.00 0.01 0.00 67 1004.0
20260508154502 44 360 0.0 18.2 0.00 0.01 0.00 70 1004.1
20260508153001 47 360 7.8 13.9 0.00 0.01 0.00 62 1004.0
20260508151602 47 360 8.7 13.9 0.00 0.01 0.00 65 1004.1
20260508150057 45 360 7.8 12.2 0.00 0.01 0.00 69 1004.3
20260508144559 45 360 7.0 12.2 0.00 0.03 0.00 71 1004.3
20260508143104 44 360 7.8 17.4 0.00 0.03 0.00 71 1004.4
20260508141552 44 331 7.8 13.0 0.00 0.03 0.00 73 1004.4
20260508140101 43 337 7.8 13.9 0.00 0.03 0.00 75 1004.4
20260508134549 43 360 8.7 11.3 0.00 0.07 0.00 76 1004.4
20260508133048 42 325 7.0 15.6 0.00 0.07 0.00 79 1004.3
20260508131546 42 288 8.7 14.8 0.00 0.07 0.00 79 1004.1
20260508130044 42 336 7.8 13.9 0.00 0.07 0.00 80 1003.9
20260508124542 41 332 8.7 16.5 0.00 0.11 0.00 80 1004.0
20260508123042 41 360 9.6 15.6 0.00 0.11 0.00 81 1003.8
20260508121543 41 319 8.7 15.6 0.00 0.11 0.00 81 1003.9
20260508120043 41 355 6.1 11.3 0.00 0.11 0.00 82 1003.7
20260508114545 41 321 6.1 13.0 0.00 0.15 0.00 81 1003.6
20260508113041 41 322 7.0 11.3 0.00 0.15 0.00 82 1003.4
20260508111545 40 360 8.7 14.8 0.00 0.15 0.00 82 1003.3
20260508110034 40 290 8.7 12.2 0.00 0.15 0.00 83 1003.2
20260508104536 40 360 9.6 14.8 0.00 0.20 0.00 83 1003.0
20260508103036 39 288 6.1 14.8 0.00 0.20 0.00 83 1002.8
20260508101532 39 360 7.8 12.2 0.00 0.20 0.00 83 1002.6
20260508100032 39 360 7.8 13.0 0.00 0.20 0.00 84 1002.5
20260508094530 38 360 7.0 13.9 0.00 0.26 0.00 84 1002.4
20260508093031 38 360 8.7 13.9 0.00 0.26 0.00 84 1002.2
20260508091532 38 360 8.7 15.6 0.00 0.26 0.00 84 1002.1
20260508090026 38 285 8.7 13.9 0.00 0.26 0.00 83 1002.0
20260508084524 38 360 7.8 13.0 0.00 0.32 0.00 82 1001.9
20260508083022 38 360 7.0 12.2 0.00 0.32 0.00 82 1002.1
20260508081519 38 288 6.1 11.3 0.00 0.32 0.00 81 1002.1
20260508080019 38 272 2.6 10.4 0.00 0.32 0.00 80 1002.2
20260508074518 39 360 4.3 11.3 0.00 0.39 0.00 80 1002.1
20260508073017 39 263 2.6 7.0 0.00 0.39 0.00 79 1002.2
20260508071513 39 290 3.5 7.0 0.00 0.39 0.00 78 1002.2
20260508070012 39 360 2.6 11.3 0.00 0.39 0.00 76 1002.3
20260508064517 39 360 5.2 8.7 0.00 0.46 0.00 76 1002.2
20260508063011 39 286 3.5 10.4 0.00 0.46 0.00 75 1002.3
20260508061509 40 360 5.2 15.6 0.00 0.46 0.00 74 1002.2
20260508060008 40 264 7.0 12.2 0.00 0.46 0.00 74 1002.2
20260508054510 40 360 9.6 14.8 0.00 0.55 0.00 73 1002.3
20260508053004 40 291 8.7 16.5 0.00 0.55 0.00 74 1002.6
20260508051606 40 274 6.1 11.3 0.00 0.55 0.00 74 1002.7
20260508050059 40 360 6.1 9.6 0.00 0.55 0.00 73 1002.8
20260508044555 41 360 7.0 11.3 0.00 0.63 0.00 71 1002.9
20260508043058 41 281 5.2 9.6 0.00 0.63 0.00 69 1003.0
20260508041551 41 255 2.6 7.8 0.00 0.63 0.00 68 1003.0